Wetbulb
46.77 44.19 42.86 43.68 45.15 46.50 45.74 51.13 54.42 56.44 61.06 58.08 57.26 57.93 58.48 61.71 61.59 61.33 61.35 61.84 62.12 64.15 66.79 67.56 68.60 68.64 68.66 68.43 68.97 69.24 69.66 70.24 69.93 69.51 68.99 68.93 68.79 71.30 72.07 71.83 72.51 72.28 72.64 72.67
43.56 42.12 46.78 48.67 47.69 47.90 47.71 53.03 54.48 57.33 59.29 58.64 57.48 57.61 59.30 61.12 60.31 61.30 60.81 61.55 62.47 64.58 64.95 66.98 67.18 68.04 67.49 67.22 68.69 68.75 69.79 69.81 69.73 69.72 69.65 69.87 70.12 70.90 71.48 71.80 72.34 72.76 72.19 71.19
42.36 44.96 48.62 47.50 46.01 45.62 44.16 48.60 53.82 54.26 57.91 58.85 56.96 55.46 57.33 61.07 62.00 61.63 62.01 62.30 63.19 63.52 64.42 64.90 66.29 66.84 67.10 66.82 67.86 68.37 69.18 69.79 69.78 70.64 70.09 69.49 69.91 70.50 70.56 71.12 71.41 72.53 72.07 70.78
43.83 47.80 47.09 45.10 45.04 45.92 40.54 48.66 57.12 54.94 52.33 48.05 55.51 46.59 55.15 58.27 59.51 61.51 61.22 60.24 62.08 63.84 65.66 65.37 66.07 66.41 66.45 67.27 68.15 68.56 69.09 69.42 69.71 70.51 70.36 69.41 68.39 68.03 69.82 70.44 71.38 72.52 73.21 72.87
43.24 44.51 44.47 43.61 45.12 45.68 45.26 50.03 55.81 55.17 50.96 48.61 50.63 46.50 50.32 57.59 56.94 58.77 60.47 61.87 61.73 63.17 65.30 64.96 65.96 66.86 67.41 67.65 67.25 68.47 68.94 68.43 69.87 70.05 70.01 69.28 68.68 68.98 69.42 70.97 71.45 72.48 73.30 73.59
44.99 47.09 46.27 45.99 47.33 47.49 50.76 53.97 51.13 50.88 48.24 43.00 47.11 46.89 46.61 51.97 55.96 58.91 60.16 61.15 61.18 63.16 64.82 65.96 66.68 67.35 67.52 67.70 67.46 68.65 68.24 67.85 69.32 69.29 69.21 69.07 68.76 68.34 68.88 69.25 70.29 71.13 72.18 72.79
42.55 43.86 45.65 46.99 42.37 43.74 45.19 44.05 39.98 40.13 40.47 40.89 45.24 47.25 46.54 55.54 57.93 60.47 60.79 61.97 60.81 63.16 64.48 65.55 65.82 66.16 66.53 67.34 67.33 68.59 68.18 67.70 68.71 69.09 69.02 68.71 68.61 68.31 68.53 69.10 70.02 70.47 71.31 72.15
36.78 36.44 44.26 46.10 44.49 41.38 42.54 42.59 39.76 34.58 36.59 39.47 48.38 44.07 48.67 57.60 60.60 61.98 63.39 63.30 61.91 62.72 64.69 65.54 66.21 66.23 66.41 67.81 68.08 68.24 68.14 67.90 68.98 69.38 69.04 69.12 68.45 69.47 69.09 70.50 70.41 70.90 71.17 72.17
35.64 38.47 46.80 46.31 45.11 46.11 41.30 40.32 45.23 39.98 37.53 41.36 44.81 47.94 53.98 59.17 59.17 61.05 62.03 63.13 62.56 62.39 63.71 64.18 65.88 66.68 66.65 67.24 68.97 68.29 68.49 68.05 68.85 69.62 69.69 69.74 69.70 69.66 69.50 70.42 70.93 71.44 71.95 72.46
39.16 35.83 42.48 47.24 47.59 46.88 44.02 45.37 39.24 36.81 33.46 34.42 41.48 44.15 45.68 55.49 58.01 59.58 60.52 61.39 62.96 65.01 65.09 65.56 65.10 66.60 67.47 67.72 68.57 70.32 69.27 68.00 68.86 69.06 69.97 70.08 70.12 70.77 71.01 70.90 70.67 70.47 71.30 71.85
40.58 38.43 41.11 42.72 40.81 42.64 42.91 40.34 38.82 39.10 38.13 36.37 37.35 42.25 53.76 54.88 58.91 59.07 60.18 61.50 62.51 63.93 65.46 66.28 66.84 66.82 67.26 69.02 69.08 70.14 69.66 69.43 69.73 69.92 69.79 70.37 70.43 70.99 71.39 71.10 71.08 71.62 72.78 72.26
41.08 37.71 36.05 41.00 43.57 44.80 43.20 41.47 40.45 37.49 36.61 39.48 39.80 42.94 57.56 58.64 59.64 60.09 60.37 61.51 62.99 64.32 65.62 67.06 67.51 66.91 66.98 68.23 69.02 68.73 68.93 69.75 69.81 70.07 70.67 70.86 71.43 71.85 70.97 71.30 71.49 72.52 72.70 72.57
41.16 36.45 34.61 38.39 39.07 42.50 39.01 39.52 39.31 39.41 42.15 40.60 39.18 42.03 58.75 58.50 58.79 59.66 59.81 60.96 61.56 62.38 63.33 64.03 65.70 66.48 67.04 67.49 67.71 68.14 68.19 68.35 68.91 68.98 68.73 69.04 67.99 68.66 68.96 70.24 71.31 72.18 72.44 72.41
46.62 36.79 37.52 34.60 35.93 38.18 38.76 39.84 41.20 38.69 37.14 39.73 41.05 49.49 55.73 56.21 56.04 58.46 59.30 59.53 60.17 61.05 61.82 62.23 62.47 64.07 67.06 67.31 66.88 67.22 68.12 68.62 68.71 68.41 67.94 68.08 66.97 67.69 68.30 68.77 69.07 69.58 71.54 72.50
40.71 36.90 36.64 39.45 41.70 41.61 39.80 39.59 41.06 39.54 40.22 42.30 44.91 49.20 53.62 55.35 56.37 57.43 58.06 58.13 58.33 58.90 59.56 60.38 60.32 61.39 63.47 65.21 65.73 66.59 67.40 68.68 68.75 68.41 68.14 67.40 68.17 68.19 67.96 67.65 67.85 68.21 69.00 69.72
39.19 36.57 36.32 40.16 42.99 41.80 39.80 43.89 42.38 48.05 46.86 48.72 49.64 48.79 55.20 57.51 57.25 57.14 57.08 56.78 56.75 57.06 57.75 58.72 59.37 60.90 61.58 61.97 62.51 63.37 64.51 65.70 67.69 68.17 67.67 67.60 67.12 67.06 66.10 66.30 66.40 66.75 67.27 67.87
39.26 36.39 35.51 33.77 40.09 41.13 36.30 39.97 42.24 42.82 50.64 50.46 47.38 50.59 55.73 54.94 55.17 56.30 56.25 56.07 56.01 56.39 57.31 57.94 58.83 59.52 60.53 60.71 61.10 60.46 62.08 63.18 63.06 63.36 64.24 64.78 64.97 64.50 63.86 64.62 64.49 64.98 65.47 66.73
41.27 36.73 34.73 34.38 36.58 31.88 42.29 44.34 48.49 50.80 52.08 52.71 52.16 54.72 56.08 55.60 55.53 56.87 57.04 54.59 54.86 55.14 56.11 57.38 58.16 57.26 57.08 56.96 57.00 57.04 56.97 56.92 57.12 57.26 58.29 61.53 63.39 61.94 62.11 62.28 62.94 63.07 63.67 65.13
38.89 38.73 35.87 34.24 33.50 39.17 42.59 43.57 42.54 45.21 48.80 54.29 53.63 55.29 54.96 54.04 53.37 52.42 55.30 55.11 53.70 53.58 53.99 55.64 55.65 55.25 55.00 54.98 55.45 55.03 55.07 55.27 55.01 54.86 55.05 56.62 58.82 58.85 58.90 58.51 59.98 61.72 61.08 60.97
38.40 37.80 37.55 32.37 31.04 32.08 41.56 46.32 48.56 50.19 39.63 55.32 55.05 54.41 51.97 53.97 48.82 49.41 53.21 52.95 52.23 53.16 54.43 53.99 53.48 52.76 52.34 51.89 52.85 52.27 51.58 52.04 51.77 52.42 52.80 54.71 55.53 55.75 57.12 58.12 58.92 60.19 60.02 60.05
33.08 32.38 30.38 31.81 31.44 35.95 43.23 46.80 48.51 38.11 38.69 54.86 55.86 54.71 53.62 51.42 51.33 49.16 52.42 50.94 51.36 52.56 52.37 52.06 51.62 50.50 49.87 50.04 50.29 48.78 48.96 48.68 50.34 51.56 51.09 51.18 52.10 52.74 53.36 54.46 55.30 56.07 57.24 57.30
34.37 30.91 30.17 29.86 29.27 29.11 45.06 45.83 40.87 43.01 48.75 54.86 53.20 52.95 50.09 49.79 49.85 49.92 49.39 49.71 49.97 49.60 50.26 50.43 48.96 48.14 47.84 48.46 48.08 46.66 46.47 48.09 49.29 49.44 49.35 49.86 50.28 51.29 51.49 52.01 52.41 52.37 52.82 52.67
34.07 36.34 35.39 35.98 34.48 41.50 44.30 43.94 46.10 45.86 48.60 50.96 51.88 51.78 51.53 50.05 49.79 51.06 50.68 49.87 49.33 48.32 47.88 48.31 47.15 46.54 46.89 47.34 47.36 45.89 46.37 47.69 47.53 46.89 46.75 47.30 48.27 48.61 50.21 49.97 49.37 48.81 49.87 50.29
38.47 39.76 38.51 38.89 41.43 43.09 44.61 46.15 47.41 49.01 49.10 51.11 51.87 51.91 52.00 49.69 50.33 50.21 49.44 48.20 47.72 48.08 47.21 46.88 46.45 45.75 45.02 46.21 46.36 46.17 46.72 46.84 46.17 45.36 45.36 45.32 45.75 45.49 46.69 48.12 48.24 47.69 47.46 47.66
38.80 38.89 37.83 38.11 41.91 43.63 45.58 45.56 46.36 49.56 50.86 51.01 52.03 52.17 51.05 49.78 49.82 50.00 48.03 47.37 47.27 46.70 46.42 46.62 45.82 44.65 44.51 45.36 45.48 45.85 45.87 46.01 44.88 44.58 43.95 43.27 43.34 43.61 44.08 44.97 45.36 46.27 46.65 46.35
40.60 38.47 36.69 37.32 41.26 41.08 42.27 45.21 46.88 47.32 49.01 50.36 50.41 50.83 51.79 51.12 49.55 49.73 48.62 48.44 47.36 46.37 46.58 46.21 45.13 44.50 44.20 44.46 44.60 44.76 45.17 45.07 44.00 42.75 42.76 42.48 42.40 42.85 43.00 43.04 43.15 44.04 44.30 43.30
MSLP
1010.43 1010.92 1010.77 1010.75 1010.67 1010.59 1010.66 1010.97 1011.58 1012.48 1012.82 1012.93 1013.39 1013.38 1013.72 1013.98 1014.22 1014.55 1014.97 1015.41 1015.90 1016.12 1016.20 1016.85 1017.54 1018.19 1018.46 1018.78 1019.12 1019.44 1019.59 1019.92 1020.18 1020.53 1020.86 1021.34 1021.48 1021.61 1021.74 1021.84 1021.92 1021.94 1022.00 1022.10
1010.86 1010.69 1010.46 1010.31 1010.41 1010.55 1010.98 1011.29 1012.27 1013.12 1013.55 1013.50 1013.84 1013.82 1014.10 1014.20 1014.32 1014.35 1014.85 1015.17 1015.52 1015.77 1016.34 1016.79 1017.33 1018.01 1018.38 1018.65 1018.98 1019.42 1019.60 1019.77 1020.04 1020.30 1020.60 1020.80 1021.27 1021.66 1021.65 1021.88 1021.98 1022.01 1022.06 1022.20
1010.34 1010.16 1010.10 1010.19 1010.39 1010.59 1011.00 1011.29 1011.99 1012.53 1013.71 1014.17 1014.41 1014.60 1014.46 1014.59 1014.76 1014.90 1014.88 1014.97 1015.00 1015.48 1016.01 1016.69 1017.21 1017.64 1018.15 1018.45 1018.59 1019.14 1019.46 1019.68 1019.96 1020.23 1020.48 1020.94 1021.22 1021.55 1021.85 1022.09 1022.12 1022.06 1022.17 1022.33
1009.95 1009.69 1009.80 1009.97 1010.18 1010.32 1010.76 1010.73 1011.53 1012.79 1013.71 1014.43 1014.68 1014.94 1014.66 1014.59 1014.79 1014.82 1014.84 1014.76 1015.18 1015.10 1015.55 1016.01 1016.73 1017.13 1017.51 1017.87 1018.44 1018.93 1019.44 1019.78 1020.00 1020.13 1020.38 1020.77 1021.18 1021.62 1021.76 1021.81 1021.81 1021.78 1021.93 1022.22
1009.63 1009.47 1009.53 1009.64 1009.71 1009.89 1009.93 1010.20 1011.49 1012.83 1013.93 1014.32 1014.98 1014.88 1014.52 1014.49 1014.82 1014.57 1014.04 1014.37 1014.57 1014.80 1015.06 1015.76 1016.06 1016.24 1016.87 1017.60 1018.07 1018.72 1019.24 1019.76 1020.10 1020.19 1020.30 1020.67 1021.18 1021.49 1021.76 1021.88 1021.86 1021.91 1021.80 1021.92
1009.30 1008.97 1008.92 1008.91 1009.04 1009.35 1009.75 1010.65 1012.40 1013.67 1014.45 1015.09 1014.24 1014.50 1014.39 1014.05 1012.87 1013.59 1013.84 1014.16 1014.08 1014.46 1014.80 1014.99 1015.26 1015.99 1016.81 1017.48 1018.01 1018.66 1019.15 1019.58 1019.92 1020.11 1020.39 1020.68 1021.08 1021.36 1021.78 1022.02 1022.08 1022.00 1022.07 1022.01
1009.56 1009.09 1008.62 1008.52 1009.10 1009.49 1009.92 1011.01 1013.53 1014.90 1015.55 1014.99 1014.29 1014.53 1013.54 1013.37 1012.75 1012.55 1012.69 1013.11 1013.49 1013.95 1014.50 1015.04 1015.67 1016.16 1016.76 1017.11 1017.58 1018.24 1018.83 1019.33 1019.74 1019.96 1020.18 1020.44 1020.81 1021.26 1021.41 1021.69 1021.92 1021.97 1021.99 1021.97
1010.22 1009.52 1008.55 1008.20 1008.51 1009.10 1009.95 1010.44 1011.71 1013.47 1014.85 1014.88 1014.64 1014.13 1012.93 1012.90 1012.59 1012.25 1012.37 1013.15 1013.37 1013.77 1014.19 1014.51 1015.11 1015.73 1016.24 1016.88 1017.34 1017.86 1018.45 1019.01 1019.48 1019.96 1020.07 1020.29 1020.53 1020.99 1021.45 1021.45 1021.59 1021.62 1021.63 1021.65
1010.62 1009.65 1008.30 1007.90 1007.71 1008.19 1009.52 1010.19 1010.36 1012.39 1014.01 1014.58 1014.75 1014.05 1013.17 1012.51 1012.34 1012.43 1012.86 1013.34 1013.79 1013.78 1014.10 1014.48 1014.87 1015.49 1016.15 1016.77 1017.40 1017.80 1018.30 1018.95 1019.40 1019.82 1020.17 1020.41 1020.49 1020.73 1021.11 1021.39 1021.43 1021.49 1021.30 1021.37
1010.64 1010.30 1008.77 1007.84 1007.60 1008.10 1008.36 1009.15 1010.78 1012.16 1013.72 1014.82 1014.93 1014.43 1013.47 1013.19 1013.34 1013.38 1013.75 1014.03 1014.36 1014.40 1014.68 1014.97 1015.30 1015.54 1016.06 1016.61 1017.27 1017.88 1018.25 1018.93 1019.51 1019.81 1020.03 1020.24 1020.45 1020.59 1020.90 1021.05 1021.10 1021.12 1021.27 1021.29
1010.74 1010.81 1009.67 1008.73 1008.28 1008.26 1008.79 1009.38 1010.66 1011.81 1012.84 1013.98 1014.79 1014.22 1013.24 1013.18 1013.46 1014.03 1014.42 1014.55 1014.80 1014.87 1015.09 1015.38 1015.55 1015.92 1016.31 1016.77 1017.23 1017.65 1018.16 1018.49 1019.31 1019.77 1019.84 1020.04 1020.30 1020.52 1020.80 1020.87 1020.94 1020.89 1020.85 1020.99
1010.94 1011.30 1010.92 1009.57 1008.74 1008.61 1008.57 1008.96 1009.76 1011.54 1013.40 1013.80 1013.76 1013.99 1013.25 1013.36 1013.69 1014.32 1015.04 1015.40 1015.50 1015.50 1015.74 1015.69 1015.98 1016.17 1016.63 1017.30 1017.85 1018.07 1018.16 1018.48 1018.95 1019.29 1019.78 1019.91 1020.27 1020.48 1020.63 1020.78 1020.80 1020.71 1020.92 1020.81
1010.81 1011.68 1011.43 1010.28 1009.68 1009.18 1009.27 1009.31 1009.76 1010.56 1011.80 1013.24 1013.72 1014.07 1013.69 1014.07 1014.41 1014.77 1015.21 1015.55 1015.76 1015.92 1016.34 1016.34 1016.32 1016.56 1017.01 1017.67 1018.16 1018.65 1018.64 1018.89 1019.02 1019.48 1019.75 1020.25 1020.62 1020.67 1020.66 1020.77 1020.75 1020.62 1020.65 1020.83
1010.74 1012.16 1012.07 1011.40 1010.94 1010.75 1010.29 1009.90 1009.86 1010.45 1011.70 1012.90 1013.11 1013.49 1013.71 1014.03 1014.44 1014.85 1015.35 1015.88 1016.27 1016.61 1016.78 1016.72 1017.00 1017.06 1017.37 1017.61 1018.17 1017.97 1018.85 1019.02 1018.92 1019.57 1019.57 1020.65 1021.14 1021.07 1020.87 1020.90 1020.94 1020.96 1020.96 1020.83
1011.58 1012.45 1012.35 1011.81 1011.29 1010.88 1010.91 1010.61 1010.31 1010.59 1010.88 1011.53 1012.33 1012.68 1012.61 1013.17 1014.03 1014.64 1015.31 1016.11 1016.61 1016.99 1017.11 1017.35 1017.40 1017.45 1017.82 1017.95 1018.09 1018.65 1019.12 1019.32 1019.59 1019.71 1019.99 1020.66 1021.30 1021.24 1021.07 1021.17 1021.16 1021.14 1021.22 1021.31
1012.63 1013.15 1012.91 1012.45 1011.58 1011.04 1011.16 1010.94 1010.72 1010.90 1011.27 1011.39 1011.92 1012.64 1012.52 1013.62 1014.17 1014.77 1015.22 1015.87 1016.48 1017.04 1017.76 1017.90 1017.96 1017.97 1018.16 1018.56 1018.55 1018.91 1019.40 1019.31 1019.30 1019.69 1019.97 1020.13 1020.62 1021.20 1021.30 1021.35 1021.62 1021.49 1021.45 1021.54
1013.51 1014.11 1014.18 1013.56 1012.42 1011.48 1011.91 1012.04 1011.91 1011.70 1011.53 1011.90 1012.05 1011.66 1012.30 1013.74 1014.51 1014.95 1015.40 1016.12 1016.87 1017.39 1017.75 1018.49 1018.52 1018.67 1019.05 1019.29 1019.46 1019.54 1019.71 1019.83 1019.98 1020.36 1020.65 1020.86 1021.17 1021.48 1021.77 1021.81 1022.15 1022.16 1021.90 1021.72
1013.74 1014.94 1014.96 1014.85 1013.79 1013.14 1012.24 1012.16 1012.39 1012.15 1012.07 1011.97 1012.01 1012.16 1012.66 1013.66 1014.67 1015.25 1015.80 1016.63 1017.51 1018.19 1018.49 1018.83 1019.17 1019.53 1019.90 1020.29 1020.36 1020.46 1020.56 1020.87 1021.03 1021.27 1021.61 1021.46 1021.61 1021.77 1021.93 1022.03 1022.52 1022.68 1022.55 1022.51
1014.52 1015.35 1016.03 1015.88 1015.29 1014.37 1012.87 1012.80 1012.98 1012.76 1012.71 1012.53 1012.60 1013.02 1013.86 1014.26 1015.13 1016.30 1016.60 1017.32 1018.01 1018.68 1019.13 1019.73 1020.06 1020.37 1020.75 1020.99 1021.34 1021.40 1021.71 1021.95 1022.19 1022.25 1022.59 1022.69 1022.57 1022.63 1022.56 1022.25 1022.48 1022.53 1022.87 1022.82
1015.33 1015.55 1015.90 1016.59 1016.17 1015.19 1013.48 1013.33 1013.00 1012.99 1013.14 1012.82 1013.17 1013.53 1013.93 1014.46 1015.63 1016.86 1017.41 1017.88 1018.77 1019.53 1019.74 1020.41 1020.90 1021.19 1021.31 1021.91 1022.06 1022.30 1022.95 1023.11 1023.41 1023.48 1023.44 1023.47 1023.31 1023.29 1023.26 1023.22 1023.19 1023.37 1023.08 1022.99
1016.70 1017.03 1017.33 1017.17 1016.51 1015.39 1014.05 1013.60 1013.07 1013.68 1014.31 1013.21 1013.38 1014.21 1015.07 1015.66 1016.29 1017.39 1017.98 1019.02 1019.73 1020.14 1020.18 1021.21 1021.88 1021.91 1021.96 1022.44 1022.68 1023.23 1023.78 1024.29 1024.47 1024.43 1024.48 1024.21 1024.15 1024.05 1024.13 1023.93 1023.94 1023.88 1023.64 1023.90
1017.97 1018.11 1018.21 1018.16 1017.25 1016.25 1014.81 1013.70 1014.05 1014.55 1013.75 1013.78 1014.17 1014.34 1015.21 1016.48 1017.17 1018.00 1018.84 1019.79 1020.42 1020.84 1021.43 1022.04 1022.39 1022.98 1023.04 1023.28 1023.11 1023.94 1024.45 1024.83 1024.82 1024.94 1024.88 1024.95 1024.94 1024.96 1025.05 1024.74 1024.75 1024.64 1024.51 1024.33
1018.38 1018.11 1018.09 1018.30 1017.57 1016.47 1015.82 1015.49 1014.99 1015.03 1014.95 1014.82 1014.85 1015.62 1016.10 1016.69 1017.71 1018.82 1019.82 1020.56 1021.18 1021.39 1022.07 1022.72 1022.93 1023.34 1023.46 1023.57 1023.85 1024.40 1025.24 1025.44 1025.52 1025.44 1025.54 1025.60 1025.53 1025.49 1025.54 1025.51 1025.55 1025.38 1025.43 1025.29
1018.20 1018.08 1018.28 1018.09 1017.05 1016.53 1015.97 1015.68 1015.44 1015.11 1015.11 1015.16 1015.68 1016.23 1016.98 1017.56 1018.64 1019.73 1019.98 1021.17 1021.79 1022.35 1022.81 1023.51 1023.95 1024.44 1024.80 1024.89 1025.04 1025.03 1025.28 1025.71 1025.75 1025.80 1026.09 1026.14 1026.03 1026.08 1026.21 1026.13 1026.01 1025.86 1026.22 1026.30
1018.74 1018.54 1018.60 1018.48 1017.53 1016.85 1016.36 1016.34 1016.31 1016.02 1015.80 1016.02 1016.62 1016.99 1017.66 1018.17 1019.31 1020.01 1020.59 1021.44 1022.17 1022.79 1023.24 1023.78 1024.02 1024.47 1024.92 1025.23 1025.37 1025.42 1025.29 1025.87 1026.04 1026.16 1026.40 1026.58 1026.59 1026.66 1026.79 1026.83 1026.86 1026.94 1027.11 1026.94
1018.71 1018.50 1018.61 1018.42 1017.83 1017.69 1017.22 1016.95 1016.66 1016.71 1016.37 1016.42 1016.82 1017.82 1018.49 1018.57 1019.15 1020.13 1021.03 1021.62 1022.23 1022.92 1023.43 1023.90 1024.31 1024.67 1025.21 1025.44 1025.60 1025.79 1026.08 1026.18 1026.37 1026.62 1026.89 1026.99 1027.00 1027.19 1027.23 1027.24 1027.47 1027.52 1027.36 1027.45
Wind_Speed
2 5 7 7 6 5 4 4 6 4 7 6 5 7 17 8 15 10 12 12 12 14 13 10 10 6 7 6 7 6 7 5 4 2 3 3 3 2 1 3 4 4 3 3
5 6 6 7 7 7 0 7 5 10 7 3 7 4 13 7 13 17 7 13 15 13 11 12 12 10 10 9 8 7 7 7 4 3 2 3 3 2 2 2 2 2 3 2
7 4 7 5 5 7 3 4 5 7 8 4 1 4 10 6 9 17 6 6 13 15 15 11 12 11 10 11 11 10 8 7 6 5 4 3 3 3 2 1 2 3 4 4
4 2 7 3 4 6 5 10 10 17 7 4 7 4 8 14 7 6 13 10 11 16 16 15 15 14 14 13 8 7 7 6 5 7 4 5 4 3 2 2 1 2 3 4
6 5 5 3 4 6 5 6 9 10 3 4 3 2 2 12 13 15 22 11 13 15 17 16 17 17 15 12 11 8 7 6 5 6 5 4 4 2 1 1 3 2 2 3
5 1 5 8 4 8 7 10 11 4 3 1 7 5 4 9 20 15 17 19 12 15 15 18 18 13 11 8 8 8 8 7 7 7 7 7 6 5 3 2 3 2 2 1
4 3 3 4 4 1 2 5 3 3 1 6 2 5 5 3 6 19 21 21 15 15 15 13 12 12 10 12 11 9 11 10 7 7 7 7 6 5 6 5 4 4 3 2
5 4 7 4 9 8 8 9 7 6 6 3 3 5 5 3 7 9 12 13 12 14 13 15 13 12 12 11 12 11 11 10 8 7 6 6 7 4 3 3 3 3 3 3
4 5 4 5 4 10 5 4 6 8 3 5 2 3 5 5 5 9 9 11 8 13 13 10 11 9 9 8 9 11 9 7 7 6 4 5 5 6 5 4 4 3 3 2
4 2 4 4 4 2 7 7 4 4 6 3 3 4 4 2 7 8 9 9 6 7 5 6 6 7 8 7 6 6 7 6 3 5 5 4 5 4 4 3 4 4 3 3
3 3 7 1 2 7 2 1 5 6 4 7 4 6 4 6 10 8 8 7 6 5 6 5 4 5 5 4 5 7 9 10 6 6 5 5 5 4 3 4 4 4 3 4
1 5 3 7 2 2 2 5 6 7 4 2 4 5 1 9 10 11 6 5 5 5 5 4 6 9 8 5 6 5 4 8 6 4 3 3 2 3 4 4 3 3 4 3
4 2 3 8 7 5 4 2 4 5 5 6 7 5 6 8 10 8 10 8 6 7 6 4 4 8 9 9 9 6 7 6 7 7 6 8 5 5 4 4 4 3 3 3
5 3 5 6 6 3 5 5 2 4 5 7 5 10 12 13 13 11 10 9 6 4 6 6 5 5 10 10 7 4 6 8 6 7 10 7 5 5 6 6 7 6 5 2
4 4 2 2 4 3 3 5 5 3 5 7 9 11 18 17 13 12 12 10 9 7 6 5 6 6 7 7 8 6 5 5 6 7 8 8 4 5 6 6 6 6 7 7
4 1 1 2 3 7 3 14 10 4 2 4 8 2 9 11 9 12 13 12 12 11 8 8 9 9 9 7 8 8 6 5 6 5 4 8 5 5 6 6 5 5 6 6
5 2 3 2 7 5 7 9 6 6 1 4 6 8 12 16 15 14 13 12 12 12 12 10 10 10 9 9 9 10 9 10 11 10 8 6 7 8 6 6 5 6 5 4
4 4 2 1 4 2 6 2 4 3 5 4 4 11 14 14 8 9 10 12 12 11 12 12 10 11 10 10 12 12 12 12 11 11 10 8 8 8 8 6 5 4 4 5
5 5 3 3 2 4 2 2 4 5 5 2 8 13 13 16 16 9 11 10 10 11 11 10 10 11 10 11 10 12 12 11 11 10 9 7 6 7 6 8 7 5 4 4
4 7 4 3 4 6 5 1 2 1 6 4 5 14 19 15 8 6 11 13 12 10 11 11 11 11 12 9 10 13 11 11 10 8 8 7 8 7 7 6 5 3 3 5
5 5 4 1 2 5 5 10 4 3 7 5 11 9 11 5 3 7 14 11 8 8 14 9 7 9 9 6 9 11 9 9 5 6 6 8 7 9 6 6 6 5 7 6
2 3 1 2 3 2 7 6 3 3 5 2 5 7 10 11 13 13 13 12 11 11 10 8 10 8 5 5 10 9 9 4 6 6 7 7 7 7 6 7 7 8 7 8
1 5 4 6 6 4 5 4 5 4 3 2 6 6 10 15 15 14 12 11 8 11 9 6 8 8 7 7 7 10 4 5 5 8 8 7 7 7 7 7 7 6 7 6
3 2 3 3 4 4 5 4 4 1 3 7 9 10 12 14 14 12 12 7 8 8 9 8 9 8 7 5 6 6 6 5 7 8 7 6 7 7 7 6 6 6 6 6
4 2 3 3 5 4 4 5 4 2 9 12 8 10 12 15 13 11 10 10 7 6 6 6 8 7 7 6 5 4 6 5 7 7 7 7 6 7 7 7 6 6 6 6
3 5 5 6 3 2 5 5 4 4 5 11 16 9 8 12 15 14 9 6 7 8 6 7 6 7 5 5 5 5 4 5 6 6 5 5 5 5 6 6 5 9 10 12
Wind_Direction
208 101 191 184 174 155 138 104 93 63 61 51 333 159 173 162 169 168 179 172 157 178 182 171 156 163 151 153 158 167 148 161 147 128 121 118 139 98 94 112 157 170 187 142
58 219 205 176 151 129 171 113 86 76 114 68 339 212 167 165 168 177 184 183 172 178 168 169 165 168 169 171 172 169 178 168 176 132 135 127 135 152 148 122 125 165 177 163
146 213 153 152 149 132 175 137 179 134 127 61 79 130 176 242 159 191 208 222 178 172 172 163 169 172 171 183 177 184 182 180 165 144 112 81 77 84 94 161 173 171 172 181
168 211 138 160 155 148 164 192 152 136 138 183 198 171 214 197 191 201 189 209 192 175 175 166 177 179 182 193 178 173 172 181 170 160 151 149 159 153 201 172 206 160 160 160
233 153 158 152 193 170 202 144 140 147 110 109 203 160 193 160 202 197 213 224 184 183 175 178 184 191 184 183 180 177 163 169 180 174 165 151 152 155 138 149 164 165 195 183
212 224 144 196 179 179 165 89 56 60 67 319 207 165 217 191 208 199 202 215 193 182 183 184 188 183 184 179 170 164 173 188 184 179 170 166 177 184 165 182 187 201 205 210
318 243 223 149 139 168 181 113 75 61 46 225 228 133 239 255 212 197 191 197 181 182 179 179 172 181 180 188 180 170 178 197 186 188 175 174 181 186 202 198 188 185 186 209
159 289 172 185 170 185 193 169 151 154 182 227 122 223 260 251 245 191 182 178 155 167 175 174 177 180 187 195 191 184 183 191 179 187 190 175 170 162 210 187 209 220 205 195
134 278 297 205 162 140 202 185 177 105 47 90 239 292 302 356 75 121 126 131 166 176 173 178 164 172 162 185 189 208 189 185 173 179 178 196 180 178 180 214 208 214 199 204
203 290 254 292 129 73 158 165 88 1 129 163 279 276 221 188 115 115 117 118 106 121 128 132 173 171 157 149 157 182 174 156 160 183 185 196 204 210 172 193 229 194 217 210
133 114 289 318 171 181 132 132 47 109 108 149 155 259 204 182 137 127 118 114 111 91 137 133 140 162 153 82 155 175 158 157 197 190 183 193 217 195 183 201 220 235 227 211
221 138 233 242 261 238 245 184 149 125 217 83 137 243 59 129 128 124 119 131 133 109 107 129 157 161 156 128 108 108 133 153 151 150 181 180 236 215 203 218 247 262 259 260
194 44 12 348 354 9 52 341 118 111 97 184 137 226 148 148 152 148 148 142 130 124 133 106 103 150 156 140 108 106 106 96 102 108 106 84 72 76 73 46 358 315 277 264
97 104 172 183 212 204 329 340 140 108 117 163 202 154 175 177 166 147 138 123 109 117 131 116 98 89 151 135 134 139 143 133 125 104 98 79 84 89 86 72 51 31 348 300
87 126 192 239 285 138 50 6 316 204 174 147 188 185 189 178 161 142 131 131 128 117 95 108 104 87 84 120 114 122 138 158 154 144 122 123 107 83 73 56 56 53 46 19
17 150 99 295 241 75 44 14 4 53 89 61 130 70 130 131 134 139 139 136 129 123 115 110 96 92 85 88 93 89 84 68 93 128 140 128 113 89 67 54 34 54 54 49
66 77 47 244 326 54 23 351 322 289 159 143 158 196 145 143 155 154 138 129 128 126 118 106 96 92 85 82 92 84 82 79 70 65 64 80 101 93 80 77 47 24 34 66
77 75 53 160 15 109 218 41 283 79 8 356 52 138 140 133 116 127 126 123 123 120 113 109 94 91 85 80 78 77 71 68 67 66 49 41 73 74 71 63 71 52 24 351
360 112 73 116 41 306 53 44 355 359 317 342 138 127 126 120 102 93 118 118 119 115 103 100 101 94 89 83 83 76 71 69 60 53 51 39 52 61 56 55 32 21 21 342
69 65 115 137 126 201 209 122 342 200 316 179 141 147 144 143 141 143 125 120 111 111 114 118 112 104 91 75 83 79 70 68 61 50 57 48 51 45 48 44 33 5 28 28
359 6 91 55 166 292 302 318 291 121 244 165 153 143 160 147 134 126 122 110 102 120 116 100 74 91 105 100 97 87 84 74 69 65 55 51 41 60 45 42 32 26 48 48
146 117 141 67 77 270 341 344 17 256 323 180 132 147 119 120 116 115 116 118 124 113 97 103 106 96 79 78 95 92 80 74 73 74 69 58 51 54 46 59 46 39 35 43
353 175 187 170 218 245 279 244 280 230 248 318 119 118 127 131 124 134 133 130 128 112 102 86 95 81 49 57 86 94 82 84 87 78 67 61 58 49 49 61 58 53 38 43
339 123 107 59 289 319 334 333 340 356 116 95 106 123 140 125 130 129 119 119 115 121 123 125 115 108 96 74 76 85 93 93 87 84 77 65 64 61 48 50 48 57 52 57
199 81 141 301 295 327 349 16 354 43 103 97 94 125 134 131 138 138 131 125 125 123 119 129 126 120 117 112 100 94 86 87 83 81 74 69 70 64 62 58 50 50 47 47
180 176 152 212 226 171 259 334 18 307 139 136 130 130 145 150 140 137 134 140 144 144 132 125 118 119 124 108 96 91 103 105 99 86 81 74 72 68 67 62 57 28 40 47